• MPC Preparation (Info)

  • MPEC 2006-U09 : 2006 UL

    The following Minor Planet Electronic Circular may be linked-to from your own Web pages, but must not otherwise be redistributed electronically.

    A form allowing access to any MPEC is at the bottom of this page.


    Read MPEC 2006-U08 Read MPEC 2006-U10


    M.P.E.C. 2006-U09                                Issued 2006 Oct. 18, 12:42 UT
    
         The Minor Planet Electronic Circulars contain information on unusual
             minor planets and routine data on comets.  They are published
       on behalf of Commission 20 of the International Astronomical Union by the
              Minor Planet Center, Smithsonian Astrophysical Observatory,
                              Cambridge, MA 02138, U.S.A.
    
                 Prepared using the Tamkin Foundation Computer Network
    
                                  MPC@CFA.HARVARD.EDU
              URL http://cfa-www.harvard.edu/iau/mpc.html  ISSN 1523-6714
    
                                        2006 UL
    
    Observations:
         K06U00L* C2006 10 17.28966 01 07 18.01 +11 53 54.6          19.6 V EU009703
         K06U00L  C2006 10 17.29807 01 07 25.82 +11 52 32.4          19.2 V EU009703
         K06U00L  C2006 10 17.30646 01 07 33.70 +11 51 09.9          19.0 V EU009703
         K06U00L  C2006 10 17.31488 01 07 41.59 +11 49 45.0          19.1 V EU009703
         K06U00L  C2006 10 17.35893 01 08 22.70 +11 42 29.8          19.6 V EU009703
         K06U00L  C2006 10 17.35946 01 08 23.20 +11 42 24.5          19.2 V EU009703
         K06U00L  C2006 10 17.36052 01 08 24.25 +11 42 13.3          19.1 V EU009703
         K06U00L  C2006 10 17.48860 01 10 41.96 +11 26 22.0          18.9 R EU009474
         K06U00L  C2006 10 17.49348 01 10 46.65 +11 25 33.1          19.1 R EU009474
         K06U00L  C2006 10 17.49836 01 10 51.36 +11 24 44.9          19.0 R EU009474
         K06U00L  C2006 10 17.87568 01 17 10.10 +10 17 52.7          19.7 V EU009595
         K06U00L  C2006 10 17.88070 01 17 14.63 +10 17 04.1          19.4 V EU009595
         K06U00L  C2006 10 17.89801 01 17 30.39 +10 14 19.4          18.9 R EU009473
         K06U00L  C2006 10 17.89997 01 17 32.13 +10 14 01.0          18.9 R EU009473
         K06U00L  C2006 10 17.90193 01 17 33.96 +10 13 41.8          18.8 R EU009473
         K06U00L  C2006 10 17.90620 01 17 36.92 +10 12 53.4          19.1 R EU009118
         K06U00L  C2006 10 17.91006 01 17 40.41 +10 12 16.1          19.1 R EU009118
         K06U00L  C2006 10 17.92002 01 17 50.17 +10 10 40.7          19.4 V EU009A44
         K06U00L  C2006 10 17.92333 01 17 53.13 +10 10 09.5          19.5 V EU009A44
         K06U00L  C2006 10 17.92693 01 17 56.37 +10 09 34.9          19.4 V EU009A44
         K06U00L  C2006 10 17.92959 01 17 58.77 +10 09 09.1          19.3 V EU009A44
         K06U00L  C2006 10 18.23420 01 22 55.40 +09 21 45.4          19.1 R EU009854
         K06U00L  C2006 10 18.23680 01 22 57.61 +09 21 21.5          19.1 R EU009854
         K06U00L  C2006 10 18.37884 01 25 08.89 +09 02 32.6          19.5 V EU009F84
         K06U00L  C2006 10 18.39272 01 25 20.39 +09 00 23.7                 EU009F84
    
    Observer details:
    118 Modra.  Observer S. Gajdos.  0.6-m f/5.5 reflector + CCD.
    473 Remanzacco.  Observers G. Sostero, E. Guido.  0.45-m f/4.4 Newtonian
        reflector + CCD.
    474 Mount John Observatory, Lake Tekapo.  Observer A. C. Gilmore.  0.6-m f/6.4
        reflector + CCD.
    595 Farra d'Isonzo.  Observers L. Bittesini, G. Lombardi, E. Pettarin,
        F. Piani.  Measurer E. Pettarin.  0.40-m f/4.5 reflector + CCD.
    703 Catalina Sky Survey.  Observer R. A. Kowalski.  Measurers E. C. Beshore,
        E. J. Christensen, G. J. Garradd, A. R. Gibbs, A. D. Grauer, R. E. Hill,
        R. A. Kowalski, S. M. Larson, R. H. McNaught.  0.68-m Schmidt + CCD.
    854 Sabino Canyon Observatory, Tucson.  Observer J. E. McGaha.  0.36-m f/10.0
        Schmidt-Cassegrain + CCD.
    A44 Altschwendt.  Observer W. Ries.  0.45-m f/3.6 reflector + CCD.
    F84 Hibiscus Observatory, Punaauia.  Observer N. Teamo.  Measurer J. C. Pelle.
        0.35-m f/3.88 Schmidt-Cassegrain + 1392x1040 CCD.
    
    Orbital elements:
    2006 UL                                                  Earth MOID = 0.0321 AU
    Epoch 2006 Sept. 22.0 TT = JDT 2454000.5                MPC
    M 352.74186              (2000.0)            P               Q
    n   0.59375238     Peri.  164.86644     +0.98509238     -0.16378114
    a   1.4019498      Node   204.74621     +0.14187852     +0.94648728
    e   0.2691768      Incl.    7.22130     +0.09728044     +0.27809632
    P   1.66           H   26.2           G   0.15           U   7
    Residuals in seconds of arc
    061017 703  0.2-  1.0-    061017 474 (3.4+  0.7-)   061017 A44  0.4+  0.5+
    061017 703  0.7-  0.2-    061017 595  0.1+  0.0     061017 A44  0.3+  0.4+
    061017 703  0.1+  0.2+    061017 595  0.4-  0.7-    061017 A44  0.2+  0.1+
    061017 703  0.6+  1.4-    061017 473  0.1+  0.5+    061018 854  0.1+  0.7-
    061017 703  0.4-  0.5+    061017 473  0.4-  0.8+    061018 854  0.5-  0.2-
    061017 703  0.4-  0.5+    061017 473  0.5+  0.4+    061018 F84  0.6+  0.8-
    061017 703  0.4+  0.2-    061017 118  0.2+  0.3+    061018 F84  1.3-  0.1+
    061017 474  1.2-  1.1+    061017 118  0.1+  0.0
    061017 474  1.0+  0.2-    061017 A44  0.9+  0.0
    
    Ephemeris:
    2006 UL                  a,e,i = 1.40, 0.27, 7                   q = 1.0246
    Date    TT    R. A. (2000) Decl.     Delta      r     Elong.  Phase     V
    2006 10 12    23 22.61   +25 48.7    0.0334   1.027   148.8    30.3    20.2
    2006 10 13    23 43.82   +23 30.8    0.0330   1.027   153.6    25.6    20.0
    2006 10 14    00 04.71   +20 58.9    0.0328   1.028   158.5    20.8    19.9
    2006 10 15    00 24.94   +18 17.1    0.0330   1.029   163.5    16.0    19.7
    2006 10 16    00 44.20   +15 30.2    0.0334   1.030   168.4    11.3    19.6
    2006 10 17    01 02.30   +12 43.3    0.0342   1.031   173.0     6.7    19.4
    2006 10 18    01 19.09   +10 00.6    0.0353   1.032   177.2     2.7    19.3
    2006 10 19    01 34.53   +07 25.7    0.0366   1.033   177.6     2.3    19.3
    2006 10 20    01 48.64   +05 00.8    0.0381   1.034   174.2     5.6    19.6
    2006 10 21    02 01.45   +02 47.4    0.0399   1.035   170.8     8.8    19.9
    2006 10 22    02 13.06   +00 45.8    0.0419   1.036   167.8    11.7    20.1
    2006 10 23    02 23.55   -01 04.1    0.0440   1.038   165.0    14.4    20.3
    2006 10 24    02 33.02   -02 42.7    0.0463   1.039   162.6    16.7    20.5
    2006 10 25    02 41.57   -04 10.9    0.0487   1.041   160.4    18.7    20.7
    2006 10 26    02 49.29   -05 29.6    0.0513   1.042   158.5    20.5    20.9
    2006 10 27    02 56.27   -06 39.6    0.0539   1.044   156.8    22.0    21.0
    2006 10 28    03 02.59   -07 41.8    0.0566   1.045   155.3    23.4    21.2
    2006 10 29    03 08.31   -08 37.0    0.0594   1.047   154.0    24.5    21.3
    2006 10 30    03 13.50   -09 26.0    0.0623   1.049   152.9    25.6    21.4
    2006 10 31    03 18.22   -10 09.4    0.0652   1.051   151.9    26.4    21.6
    2006 11 01    03 22.52   -10 47.9    0.0682   1.053   151.0    27.2    21.7
    
    Timothy B. Spahr             (C) Copyright 2006 MPC           M.P.E.C. 2006-U09
    

    Read MPEC 2006-U08 Read MPEC 2006-U10


    MPEC number:

    Enter an MPEC number in one of the following forms:

    • 1997-B01 (the full form)
    • J97B01 (the packed version of the full form)
    • B01 (the abbreviated form)